Location: Arbon
(43.0005°N, 0.7472°E)
Time: 22:35:13
(UTC+00:00)

Altair - Pass Details

Date: 28 November 2020
Orbit: 1501 x 1682 km, 47.2° (Epoch: 26 January)

Event Time Altitude Azimuth Distance (km) Brightness Sun altitude
Rises 01:10:54 0° 289° (WNW) 4,649 - -61.9°
Reaches altitude 10° 01:13:56 10° 290° (WNW) 3,659 - -61.5°
Maximum altitude 01:23:09 83° 20° (NNE) 1,518 - -60.2°
Drops below altitude 10° 01:32:27 10° 108° (ESE) 3,690 - -58.9°
Exits shadow 01:33:16 - 109° (ESE) 3,958 9.8 -58.7°
Sets 01:35:31 0° 110° (ESE) 4,689 10.3 -58.4°
